| time (UTC) | temp F | wind direction | speed MPH | gust MPH | rain 1hr in | rain 24hr in | rain mn in | humidity % | barometer mb |
| 20260507210517 | 59 | 0.0 | 0.0 | 0.00 | 0.00 | 0.00 | 84 | 1016.8 | |
| 20260507205527 | 59 | 9 | 0.0 | 1.0 | 0.00 | 0.00 | 0.00 | 84 | 1016.6 |
| 20260507204516 | 59 | 0.0 | 0.0 | 0.00 | 0.00 | 0.00 | 84 | 1016.5 | |
| 20260507203523 | 59 | 0.0 | 0.0 | 0.00 | 0.00 | 0.00 | 85 | 1016.5 | |
| 20260507202521 | 59 | 22 | 0.0 | 2.0 | 0.00 | 0.00 | 0.00 | 86 | 1016.3 |
| 20260507201518 | 58 | 0.0 | 0.0 | 0.00 | 0.00 | 0.00 | 85 | 1016.1 | |
| 20260507200525 | 59 | 0.0 | 0.0 | 0.00 | 0.00 | 0.00 | 84 | 1015.8 | |
| 20260507195521 | 59 | 0.0 | 0.0 | 0.00 | 0.00 | 0.00 | 83 | 1015.8 | |
| 20260507194520 | 60 | 0.0 | 0.0 | 0.00 | 0.00 | 0.00 | 82 | 1015.8 | |
| 20260507193519 | 60 | 0.0 | 0.0 | 0.00 | 0.00 | 0.00 | 81 | 1015.6 | |
| 20260507192531 | 61 | 0.0 | 0.0 | 0.00 | 0.00 | 0.00 | 80 | 1015.4 | |
| 20260507191520 | 62 | 0.0 | 0.0 | 0.00 | 0.00 | 0.00 | 79 | 1015.3 | |
| 20260507190527 | 63 | 0.0 | 0.0 | 0.00 | 0.00 | 0.00 | 78 | 1015.0 | |
| 20260507185515 | 63 | 0.0 | 0.0 | 0.00 | 0.00 | 0.00 | 76 | 1015.1 | |
| 20260507184518 | 64 | 0.0 | 0.0 | 0.00 | 0.00 | 0.00 | 75 | 1014.8 | |
| 20260507183521 | 65 | 0.0 | 0.0 | 0.00 | 0.00 | 0.00 | 75 | 1014.7 | |
| 20260507182519 | 65 | 0.0 | 0.0 | 0.00 | 0.00 | 0.00 | 74 | 1014.7 | |
| 20260507181524 | 65 | 0.0 | 0.0 | 0.00 | 0.00 | 0.00 | 74 | 1014.6 | |
| 20260507180521 | 66 | 0.0 | 0.0 | 0.00 | 0.00 | 0.00 | 73 | 1014.3 | |
| 20260507175517 | 67 | 0.0 | 0.0 | 0.00 | 0.00 | 0.00 | 71 | 1014.2 | |
| 20260507174526 | 68 | 0.0 | 0.0 | 0.00 | 0.00 | 0.00 | 69 | 1013.9 | |
| 20260507173529 | 69 | 0.0 | 0.0 | 0.00 | 0.00 | 0.00 | 69 | 1013.7 | |
| 20260507172522 | 70 | 357 | 0.0 | 1.0 | 0.00 | 0.00 | 0.00 | 68 | 1013.6 |
| 20260507171516 | 70 | 359 | 0.0 | 1.0 | 0.00 | 0.00 | 0.00 | 66 | 1013.7 |
| 20260507170516 | 71 | 7 | 0.0 | 2.0 | 0.00 | 0.00 | 0.00 | 63 | 1013.7 |
| 20260507165531 | 72 | 0 | 0.0 | 3.0 | 0.00 | 0.00 | 0.00 | 61 | 1013.6 |
| 20260507164528 | 72 | 346 | 0.0 | 3.0 | 0.00 | 0.00 | 0.00 | 61 | 1013.5 |
| 20260507163516 | 71 | 8 | 1.0 | 4.0 | 0.00 | 0.00 | 0.00 | 59 | 1013.6 |
| 20260507162517 | 70 | 8 | 1.0 | 3.0 | 0.00 | 0.00 | 0.00 | 59 | 1013.5 |
| 20260507161526 | 71 | 11 | 0.0 | 3.0 | 0.00 | 0.00 | 0.00 | 58 | 1013.5 |
| 20260507160518 | 71 | 21 | 0.0 | 2.0 | 0.00 | 0.00 | 0.00 | 57 | 1013.7 |
| 20260507155525 | 73 | 10 | 0.0 | 3.0 | 0.00 | 0.00 | 0.00 | 54 | 1013.6 |
| 20260507154520 | 75 | 0.0 | 0.0 | 0.00 | 0.00 | 0.00 | 51 | 1013.5 | |
| 20260507153519 | 76 | 0.0 | 0.0 | 0.00 | 0.00 | 0.00 | 49 | 1013.5 | |
| 20260507152527 | 75 | 178 | 0.0 | 4.0 | 0.00 | 0.00 | 0.00 | 49 | 1013.3 |
| 20260507151517 | 77 | 207 | 0.0 | 2.0 | 0.00 | 0.00 | 0.00 | 46 | 1013.3 |
| 20260507150516 | 78 | 219 | 1.0 | 6.0 | 0.00 | 0.00 | 0.00 | 46 | 1013.1 |
| 20260507145516 | 78 | 217 | 3.0 | 10.0 | 0.00 | 0.00 | 0.00 | 46 | 1013.2 |
| 20260507144517 | 78 | 236 | 0.0 | 2.0 | 0.00 | 0.00 | 0.00 | 47 | 1013.2 |
| 20260507143524 | 79 | 228 | 5.0 | 10.0 | 0.00 | 0.00 | 0.00 | 44 | 1013.3 |
| 20260507142520 | 79 | 213 | 1.0 | 3.0 | 0.00 | 0.00 | 0.00 | 46 | 1013.3 |
| 20260507141525 | 80 | 221 | 5.0 | 8.0 | 0.00 | 0.00 | 0.00 | 46 | 1013.4 |
| 20260507140518 | 75 | 233 | 1.0 | 4.0 | 0.00 | 0.00 | 0.00 | 51 | 1013.4 |
| 20260507135528 | 75 | 0.0 | 0.0 | 0.00 | 0.00 | 0.00 | 50 | 1013.6 | |
| 20260507134521 | 78 | 222 | 2.0 | 7.0 | 0.00 | 0.00 | 0.00 | 47 | 1013.6 |
| 20260507133528 | 82 | 207 | 2.0 | 8.0 | 0.00 | 0.00 | 0.00 | 47 | 1013.8 |
| 20260507132517 | 80 | 207 | 3.0 | 14.0 | 0.00 | 0.00 | 0.00 | 48 | 1013.6 |
| 20260507131519 | 79 | 223 | 5.0 | 9.0 | 0.00 | 0.02 | 0.00 | 48 | 1013.6 |
| 20260507130518 | 79 | 224 | 2.0 | 8.0 | 0.00 | 0.04 | 0.00 | 51 | 1013.6 |
| 20260507125519 | 78 | 208 | 5.0 | 9.0 | 0.00 | 0.07 | 0.00 | 53 | 1013.7 |
| 20260507124523 | 77 | 217 | 2.0 | 10.0 | 0.00 | 0.07 | 0.00 | 51 | 1013.8 |
| 20260507123524 | 78 | 226 | 3.0 | 9.0 | 0.00 | 0.07 | 0.00 | 54 | 1013.7 |
| 20260507122521 | 75 | 205 | 2.0 | 8.0 | 0.00 | 0.07 | 0.00 | 58 | 1013.8 |
| 20260507121525 | 76 | 201 | 1.0 | 4.0 | 0.00 | 0.07 | 0.00 | 56 | 1013.8 |
| 20260507120520 | 77 | 205 | 3.0 | 9.0 | 0.00 | 0.07 | 0.00 | 57 | 1013.8 |
| 20260507115527 | 76 | 219 | 1.0 | 4.0 | 0.00 | 0.07 | 0.00 | 57 | 1013.8 |
| 20260507114519 | 76 | 224 | 2.0 | 13.0 | 0.00 | 0.07 | 0.00 | 58 | 1013.8 |
| 20260507113516 | 76 | 223 | 3.0 | 8.0 | 0.00 | 0.07 | 0.00 | 61 | 1014.0 |
| 20260507112522 | 74 | 244 | 0.0 | 6.0 | 0.00 | 0.07 | 0.00 | 60 | 1014.1 |
| 20260507111523 | 76 | 222 | 2.0 | 4.0 | 0.00 | 0.07 | 0.00 | 59 | 1014.2 |
| 20260507110518 | 75 | 211 | 3.0 | 8.0 | 0.00 | 0.07 | 0.00 | 63 | 1014.3 |
| 20260507105522 | 74 | 243 | 0.0 | 3.0 | 0.00 | 0.07 | 0.00 | 62 | 1014.4 |
| 20260507104519 | 74 | 242 | 0.0 | 3.0 | 0.00 | 0.07 | 0.00 | 65 | 1014.6 |
| 20260507103534 | 72 | 221 | 0.0 | 2.0 | 0.00 | 0.07 | 0.00 | 69 | 1014.7 |
| 20260507102531 | 71 | 235 | 0.0 | 3.0 | 0.00 | 0.07 | 0.00 | 68 | 1014.8 |
| 20260507101525 | 73 | 218 | 2.0 | 10.0 | 0.00 | 0.07 | 0.00 | 67 | 1014.8 |
| 20260507100522 | 71 | 226 | 2.0 | 7.0 | 0.00 | 0.07 | 0.00 | 72 | 1014.7 |
| 20260507095517 | 69 | 219 | 2.0 | 6.0 | 0.00 | 0.07 | 0.00 | 72 | 1014.7 |
| 20260507094534 | 68 | 224 | 2.0 | 3.0 | 0.00 | 0.07 | 0.00 | 74 | 1014.8 |
| 20260507093529 | 68 | 333 | 0.0 | 1.0 | 0.00 | 0.08 | 0.00 | 74 | 1014.8 |
| 20260507092526 | 68 | 217 | 1.0 | 3.0 | 0.00 | 0.08 | 0.00 | 75 | 1014.8 |
| 20260507091521 | 69 | 259 | 1.0 | 3.0 | 0.00 | 0.09 | 0.00 | 75 | 1014.8 |
| 20260507090518 | 67 | 219 | 1.0 | 3.0 | 0.00 | 0.09 | 0.00 | 80 | 1014.9 |
| 20260507085533 | 67 | 16 | 1.0 | 2.0 | 0.00 | 0.09 | 0.00 | 80 | 1014.8 |
| 20260507084530 | 66 | 347 | 1.0 | 3.0 | 0.00 | 0.09 | 0.00 | 84 | 1014.7 |
| 20260507083525 | 64 | 188 | 0.0 | 1.0 | 0.00 | 0.09 | 0.00 | 85 | 1014.6 |
| 20260507082522 | 65 | 203 | 1.0 | 3.0 | 0.00 | 0.09 | 0.00 | 86 | 1014.7 |
| 20260507081537 | 65 | 199 | 0.0 | 2.0 | 0.00 | 0.09 | 0.00 | 89 | 1014.7 |
| 20260507080532 | 63 | 346 | 1.0 | 3.0 | 0.00 | 0.09 | 0.00 | 91 | 1014.7 |
| 20260507075529 | 62 | 272 | 0.0 | 1.0 | 0.00 | 0.09 | 0.00 | 92 | 1014.6 |
| 20260507074524 | 61 | 25 | 0.0 | 1.0 | 0.00 | 0.09 | 0.00 | 92 | 1014.6 |
| 20260507073520 | 61 | 358 | 0.0 | 1.0 | 0.00 | 0.09 | 0.00 | 92 | 1014.5 |
| 20260507072535 | 62 | 3 | 1.0 | 3.0 | 0.00 | 0.09 | 0.00 | 93 | 1014.4 |
| 20260507071532 | 61 | 0.0 | 0.0 | 0.00 | 0.09 | 0.00 | 94 | 1014.5 | |
| 20260507070527 | 60 | 9 | 1.0 | 3.0 | 0.00 | 0.09 | 0.00 | 94 | 1014.3 |
| 20260507065524 | 60 | 39 | 1.0 | 2.0 | 0.00 | 0.09 | 0.00 | 95 | 1014.3 |
| 20260507064519 | 59 | 0.0 | 0.0 | 0.00 | 0.09 | 0.00 | 95 | 1014.3 | |
| 20260507063536 | 59 | 5 | 1.0 | 2.0 | 0.00 | 0.09 | 0.00 | 96 | 1014.2 |
| 20260507062531 | 58 | 8 | 0.0 | 1.0 | 0.00 | 0.09 | 0.00 | 96 | 1014.3 |
| 20260507061529 | 58 | 23 | 0.0 | 2.0 | 0.00 | 0.09 | 0.00 | 96 | 1014.1 |
| 20260507060523 | 57 | 14 | 1.0 | 3.0 | 0.00 | 0.09 | 0.00 | 96 | 1014.1 |
| 20260507055518 | 57 | 21 | 1.0 | 3.0 | 0.00 | 0.09 | 0.00 | 96 | 1014.0 |
| 20260507054535 | 57 | 45 | 0.0 | 1.0 | 0.00 | 0.09 | 0.00 | 96 | 1013.9 |
| 20260507053530 | 56 | 47 | 0.0 | 1.0 | 0.00 | 0.09 | 0.00 | 96 | 1013.8 |
| 20260507052525 | 56 | 0.0 | 0.0 | 0.00 | 0.09 | 0.00 | 96 | 1013.6 | |
| 20260507051522 | 56 | 41 | 0.0 | 1.0 | 0.00 | 0.09 | 0.00 | 96 | 1013.7 |
| 20260507050537 | 56 | 0.0 | 0.0 | 0.00 | 0.09 | 0.00 | 96 | 1013.4 | |
| 20260507045534 | 57 | 0.0 | 0.0 | 0.00 | 0.09 | 0.00 | 96 | 1013.5 | |
| 20260507044529 | 57 | 0.0 | 0.0 | 0.00 | 0.09 | 0.00 | 96 | 1013.3 | |
| 20260507043525 | 56 | 0.0 | 0.0 | 0.00 | 0.09 | 0.00 | 96 | 1013.3 | |
| 20260507042520 | 56 | 0.0 | 0.0 | 0.00 | 0.09 | 0.00 | 96 | 1013.1 | |
| 20260507041537 | 56 | 0.0 | 0.0 | 0.00 | 0.09 | 0.00 | 96 | 1012.9 | |
| 20260507040532 | 56 | 0.0 | 0.0 | 0.00 | 0.09 | 0.00 | 96 | 1013.0 | |
| 20260507035529 | 56 | 0.0 | 0.0 | 0.00 | 0.09 | 0.00 | 96 | 1012.9 | |
| 20260507034524 | 56 | 0.0 | 0.0 | 0.00 | 0.10 | 0.00 | 96 | 1012.9 | |
| 20260507033519 | 56 | 0.0 | 0.0 | 0.00 | 0.10 | 0.00 | 96 | 1012.7 | |
| 20260507032534 | 56 | 0.0 | 0.0 | 0.00 | 0.10 | 0.00 | 96 | 1012.9 | |
| 20260507031531 | 56 | 0.0 | 0.0 | 0.00 | 0.10 | 0.00 | 96 | 1012.7 | |
| 20260507030526 | 56 | 0.0 | 0.0 | 0.00 | 0.09 | 0.00 | 96 | 1012.7 | |
| 20260507025523 | 56 | 0.0 | 0.0 | 0.00 | 0.09 | 0.00 | 95 | 1012.7 | |
| 20260507024520 | 56 | 0.0 | 0.0 | 0.00 | 0.09 | 0.00 | 95 | 1012.7 | |
| 20260507023535 | 56 | 17 | 0.0 | 2.0 | 0.00 | 0.09 | 0.00 | 96 | 1012.8 |
| 20260507022532 | 56 | 59 | 0.0 | 1.0 | 0.00 | 0.09 | 0.00 | 96 | 1012.7 |
| 20260507021527 | 56 | 42 | 0.0 | 2.0 | 0.00 | 0.09 | 0.00 | 96 | 1012.7 |
| 20260507020522 | 56 | 26 | 1.0 | 2.0 | 0.00 | 0.09 | 0.00 | 96 | 1012.7 |
| 20260507015535 | 55 | 25 | 0.0 | 1.0 | 0.00 | 0.09 | 0.00 | 95 | 1012.6 |
| 20260507014530 | 54 | 0.0 | 0.0 | 0.00 | 0.09 | 0.00 | 95 | 1012.5 | |
| 20260507013526 | 54 | 0.0 | 0.0 | 0.00 | 0.09 | 0.00 | 95 | 1012.5 | |
| 20260507012521 | 55 | 0.0 | 0.0 | 0.00 | 0.09 | 0.00 | 94 | 1012.4 | |
| 20260507011518 | 55 | 0.0 | 0.0 | 0.00 | 0.09 | 0.00 | 94 | 1012.5 | |
| 20260507010533 | 56 | 0.0 | 0.0 | 0.00 | 0.09 | 0.00 | 95 | 1012.6 | |
| 20260507005528 | 55 | 0.0 | 0.0 | 0.00 | 0.09 | 0.00 | 95 | 1012.7 | |
| 20260507004525 | 55 | 0.0 | 0.0 | 0.00 | 0.09 | 0.00 | 95 | 1012.5 | |
| 20260507003520 | 55 | 0.0 | 0.0 | 0.00 | 0.09 | 0.00 | 95 | 1012.6 | |
| 20260507002537 | 55 | 0.0 | 0.0 | 0.00 | 0.09 | 0.00 | 94 | 1012.5 | |
| 20260507001532 | 55 | 0.0 | 0.0 | 0.00 | 0.09 | 0.00 | 94 | 1012.4 | |
| 20260507000529 | 56 | 0.0 | 0.0 | 0.00 | 0.09 | 0.00 | 94 | 1012.5 | |
| 20260506235524 | 56 | 0.0 | 0.0 | 0.00 | 0.09 | 0.00 | 94 | 1012.6 | |
| 20260506234521 | 56 | 0.0 | 0.0 | 0.00 | 0.09 | 0.00 | 94 | 1012.6 | |
| 20260506233536 | 56 | 0.0 | 0.0 | 0.00 | 0.09 | 0.00 | 94 | 1012.5 | |
| 20260506232533 | 55 | 0.0 | 0.0 | 0.00 | 0.09 | 0.00 | 94 | 1012.5 | |
| 20260506231527 | 55 | 0.0 | 0.0 | 0.00 | 0.09 | 0.00 | 94 | 1012.4 | |
| 20260506230522 | 55 | 0.0 | 0.0 | 0.00 | 0.09 | 0.00 | 94 | 1012.6 | |
| 20260506225518 | 56 | 0.0 | 0.0 | 0.00 | 0.09 | 0.00 | 94 | 1012.3 | |
| 20260506224517 | 56 | 0.0 | 0.0 | 0.00 | 0.09 | 0.00 | 94 | 1012.5 | |
| 20260506223524 | 56 | 0.0 | 0.0 | 0.00 | 0.09 | 0.00 | 93 | 1012.6 | |
| 20260506222518 | 56 | 0.0 | 0.0 | 0.00 | 0.09 | 0.00 | 93 | 1012.4 | |
| 20260506221519 | 56 | 0.0 | 0.0 | 0.00 | 0.09 | 0.00 | 93 | 1012.5 | |
| 20260506220518 | 57 | 0.0 | 0.0 | 0.00 | 0.09 | 0.09 | 93 | 1012.4 | |
| 20260506215522 | 57 | 0.0 | 0.0 | 0.00 | 0.09 | 0.09 | 93 | 1012.4 | |
| 20260506214519 | 57 | 0.0 | 0.0 | 0.00 | 0.09 | 0.09 | 93 | 1012.3 | |
| 20260506213524 | 57 | 0.0 | 0.0 | 0.00 | 0.09 | 0.09 | 92 | 1012.3 | |
| 20260506212520 | 58 | 0.0 | 0.0 | 0.00 | 0.09 | 0.09 | 92 | 1012.3 | |
| 20260506211521 | 58 | 0.0 | 0.0 | 0.00 | 0.09 | 0.09 | 93 | 1012.3 |